Regional Weather Roundup
Issued by NWS Bismarck, ND

Home | Current Version | Previous Version | Text Only | Print | Product List | Glossary On
Versions: 1 2 3 4 5 6 7 8 9 10 11 12 13 14 15 16 17 18 19 20 21 22 23 24 25 26 27 28 29 30 31 32 33 34 35 36 37 38 39 40 41 42 43 44 45 46 47 48 49 50
000
ASUS43 KBIS 311510
RWRBIS

NWR BROADCAST TEXT
NATIONAL WEATHER SERVICE BISMARCK ND
1000 AM CDT FRI JUL 31 2015

NOTE: "FAIR" INDICATES FEW OR NO CLOUDS BELOW 12,000 FEET WITH NO
SIGNIFICANT WEATHER AND/OR OBSTRUCTIONS TO VISIBILITY.


CITY           SKY/WX    TMP DP  RH WIND       PRES   REMARKS
WILLISTON      SUNNY     71  53  52 NE8       30.17R
MINOT          SUNNY     72  50  45 W7        30.13F
MINOT AFB      SUNNY     75  53  45 NW7       30.13S
BISMARCK       SUNNY     73  54  51 SW3       30.16F
DICKINSON      SUNNY     78  52  40 W9        30.18S
GARRISON         N/A     71  56  58 SW8       30.14F
HETTINGER ARPT SUNNY     74  50  42 W7        30.23S
JAMESTOWN      SUNNY     72  54  53 NW8       30.14S
BEACH          FAIR      77  48  36 SW8       30.21F
CROSBY         FAIR      68  55  64 N6        30.18R
HARVEY         FAIR      72  54  53 W9        30.14F
HAZEN          FAIR      73  50  43 W9        30.15F
LINTON         FAIR      73  57  56 SW8       30.17F
MANDAN         FAIR      73  50  43 SW15      30.17F
OAKES            N/A     73  57  56 N6        30.14F
STANLEY        FAIR      70  57  64 VRB7G13   30.16F
$$

CITY           SKY/WX    TMP DP  RH WIND       PRES   REMARKS
GRAND FORKS    MOSUNNY   73  54  51 NW14      30.06S
GRAND FORKS AF SUNNY     73  55  54 NW13G18   30.08R
DEVILS LAKE    CLOUDY    66  52  59 NW12      30.11S
FARGO          SUNNY     73  56  54 W12       30.10S
CAVALIER       FAIR      72  54  53 NW13      30.05S
GRAFTON        FAIR      72  55  56 NW10      30.06S
GWINNER        FAIR      73  54  49 NW9       30.14S
LANGDON        FAIR      70  55  60 W13       30.10S
ROLLA          FAIR      68  52  56 NW8       30.13S
WALHALLA       FAIR      72  55  56 MISG      30.05S
$$

CITY           SKY/WX    TMP DP  RH WIND       PRES   REMARKS
ABERDEEN       SUNNY     72  57  59 S3        30.16S
MOBRIDGE       SUNNY     74  56  53 S3        30.16S
BUFFALO          N/A     74  50  42 CALM      30.18S
RAPID CITY     SUNNY     72  53  51 N8        30.24R
GLASGOW        SUNNY     73  51  46 SE7       30.16F
SIDNEY         SUNNY    N/A N/A N/A S6        30.16F
WOLF POINT     SUNNY     69  52  54 CALM      30.17F
GLENDIVE       SUNNY     72  52  49 CALM      30.20S
MILES CITY     SUNNY     72  49  44 SE7       30.18F
BAKER          SUNNY     82  43  25 S3        30.23S
$$

CITY           SKY/WX    TMP DP  RH WIND       PRES   REMARKS
BILLINGS       MOSUNNY   65  46  50 SW8       30.25R
GREAT FALLS    MOSUNNY   71  42  35 SW12      30.21S
$$




USA.gov is the U.S. government's official web portal to all federal, state and local government web resources and services.